Regional Weather Roundup
Issued by NWS

Home | Current Version | Previous Version | Text Only | Print | Product List | Glossary Off
Versions: 1 2 3 4 5 6 7 8 9 10 11 12 13 14 15 16 17 18 19 20 21 22 23 24 25 26 27 28 29 30 31 32 33 34 35 36 37 38 39 40 41 42 43 44 45 46 47 48 49 50

000
ASUS43 KLSX 250757
RWRMO

WEATHER SUMMARY FOR MISSOURI
NATIONAL WEATHER SERVICE SPRINGFIELD MO
300 AM CDT SAT MAR 25 2017

NOTE: "FAIR" INDICATES FEW OR NO CLOUDS BELOW 12,000 FEET WITH NO
       SIGNIFICANT WEATHER AND/OR OBSTRUCTIONS TO VISIBILITY.
       CURRENT SKY AND/OR WEATHER CONDITIONS ARE NOT AVAILABLE FOR
       CHILLICOTHE AND FARMINGTON.

MOZ001>031-035>038-043-044-053-054-250900-
...NORTHERN AND WESTERN MISSOURI...

CITY           SKY/WX    TMP DP  RH WIND       PRES   REMARKS
KANSAS CTY INT LGT RAIN  52  52 100 N8        29.76S FOG
LEE`S SUMMIT   MOCLDY    55  50  83 SE7       29.76F
ST JOSEPH      CLOUDY    48  48 100 N10       29.80F
CHILLICOTHE      N/A     56  54  93 NE3       29.82R
KIRKSVILLE     CLOUDY    56  55  97 E12       29.83F

$$
MOZ066>068-077>081-088>096-101>105-250900-
...SOUTHWEST MISSOURI...

CITY           SKY/WX    TMP DP  RH WIND       PRES   REMARKS
SPRINGFIELD    MOCLDY    53  50  89 SE13      29.77S
JOPLIN         MOCLDY    54  53  97 NE3       29.76F

$$
MOZ032>034-039>042-045>050-055>058-069>072-250900-
...CENTRAL MISSOURI...

CITY           SKY/WX    TMP DP  RH WIND       PRES   REMARKS
COLUMBIA       NOT AVBL
JEFFERSON CITY CLOUDY    59  54  83 E10       29.78F
ROLLA          LGT RAIN  53  52  96 E12       29.78F
SEDALIA        CLOUDY    55  49  80 SE5       29.79S
WARRENSBURG    MOCLDY    52  46  82 NE3       29.78F

$$
MOZ051-052-059>065-250900-
...EAST CENTRAL MISSOURI...

CITY           SKY/WX    TMP DP  RH WIND       PRES   REMARKS
ST LOUIS INTL  HVY RAIN  61  58  90 SE8       29.86S FOG

$$
MOZ072>076-082>087-097>100-106>115-250900-
...SOUTH CENTRAL AND SOUTHEAST MISSOURI...

CITY           SKY/WX    TMP DP  RH WIND       PRES   REMARKS
CAPE GIRARDEAU LGT RAIN  60  53  77 W25G36    29.92R
POPLAR BLUFF   LGT RAIN  56  54  93 NW3       29.93S
WEST PLAINS    CLOUDY    53  51  93 SE5       29.84R

$$


USA.gov is the U.S. government's official web portal to all federal, state and local government web resources and services.